Погода в Вейделевке

Россия / Белгородская область     50°08′49″N   38°26′40″E
темп.,
°C
ветер,
м/с
пор.,
м/с
влажн.,
%
обл.,
%
осадки,
мм/ч
давл.,
гПа
погр.,
м
4 декабря, сб
сб400:00+8ююз91684100 0.0 1007897
03:00+6з71092100 1.0 1008792
06:00+2ссз3798100 1.8 1011291
09:00+2зсз477998 1.8 1013673
12:00+3зсз4560100 0.0 1014663
15:00+2сз3456100 0.0 1014558
18:00+1с2372100 0.0 1014283
21:000ссв2378100 0.0 1015125
5 декабря, вс
вс500:00−1св2480100 0.0 1015115
03:00−2св358468 0.0 1015120
06:00−3св3785100 0.0 1015182
09:00−2св488171 0.0 1015281
12:00+1всв46645 0.0 1015483
15:00+1св46580 0.0 1015495
18:00−2св35745 0.0 101794
21:00−2в3574100 0.0 1018121
6 декабря, пн
пн600:00−2в2376100 0.0 101966
03:00−2в2379100 0.0 101974
06:00−2вюв3581100 0.0 1019131
09:00−1вюв3687100 0.0 1020212
12:00+1ююв358399 0.0 1020378
15:00+2юв3685100 0.0 1019371
18:00+1юв4792100 0.0 1020240
21:00+1юв4797100 0.0 1020307
7 декабря, вт
вт700:00+1юв51196100 0.0 1019331
03:00+2юв61298100 4.3 1017325
06:00+3ююв61396100 2.1 1016380
09:00+5ююв61396100 4.4 1015362
12:00+6ю61388100 1.4 1015429
15:00+7ю41290100 1.6 1014376
18:00+6ююв41086100 0.0 1013222
21:00+4юв41289100 0.0 1013259
8 декабря, ср
ср800:00+4ююв51389100 0.0 1012279
03:00+4юв51291100 0.0 1011243
06:00+4юв51192100 0.0 1010230
09:00+3вюв51194100 0.0 1010258
12:00+5юв51086100 0.0 1009388
15:00+5юв5886100 0.0 1008446
18:00+4вюв51093100 0.0 1008270
21:00+4юв51095100 0.0 1008260